EHI
0 0 0 0 0 0 0 0 0 0 0 0 0 0 0 0 0 0 0 0 0 0 0 0 0 0 0 0 0 0 0 0 0 0 0 0 0 0 0 0 0 0 0 0
0 0 0 0 0 0 0 0 0 0 0 0 0 0 0 0 0 0 0 0 0 0 0 0 0 0 0 0 0 0 0 0 0 0 0 0 0 0 0 0 0 0 0 0
0 0 0 0 0 0 0 0 0 0 0 0 0 0 0 0 0 0 0 0 0 0 0 0 0 0 0 0 0 0 0 0 0 0 0 0 0 0 0 0 0 0 0 0
0 0 0 0 0 0 0 0 0 0 0 0 0 0 0 0 0 0 0 0 0 0 0 0 0 0 0 0 0 0 0 0 0 0 0 0 0 0 0 0 0 0 0 0
0 0 0 0 0 0 0 0 0 0 0 0 0 0 0 0 0 0 0 0 0 0 0 0 0 0 0 0 0 0 0 0 0 0 0 0 0 0 0 0 0 0 0 0
0 0 0 0 0 0 0 0 0 0 0 0 0 0 0 0 0 0 0 0 0 0 0 0 0 0 0 0 0 0 0 0 0 0 0 0 0 0 0 0 0 0 0 0
0 0 0 0 0 0 0 0 0 0 0 0 0 0 0 0 0 0 0 0 0 0 0 0 0 0 0 0 0 0 0 0 0 0 0 0 0 0 0 0 0 0 0 0
0 0 0 0 0 0 0 0 0 0 0 0 0 0 0 0 0 0 0 0 0 0 0 0 0 0 0 0 0 0 0 0 0 0 0 0 0 0 0 0 0 0 0 0
0 0 0 0 0 0 0 0 0 0 0 0 0 0 0 0 0 0 0 0 0 0 0 0 0 0 0 0 0 0 0 0 0 0 0 0 0 0 0 0 0 0 0 0
0 0 0 0 0 0 0 0 0 0 0 0 0 0 0 0 0 0 0 0 0 0 0 0 0 0 0 0 0 0 0 0 0 0 0 0 0 0 0 0 0 0 0 0
0 0 0 0 0 0 0 0 0 0 0 0 0 0 0 0 0 0 0 0 0 0 0 0 0 0 0 0 0 0 0 0 0 0 0 0 0 0 0 0 0 0 0 0
0 0 0 0 0 0 0 0 0 0 0 0 0 0 0 0 0 0 0 0 0 0 0 0 0 0 0 0 0 0 0 0 0 0 0 0 0 0 0 0 0 0 0 0
0 0 0 0 0 0 0 0 0 0 0 0 0 0 0 0 0 0 0 0 0 0 0 0 0 0 0 0 0 0 0 0 0 0 0 0 0 0 0 0 0 0 0 0
0 0 0 0 0 0 0 0 0 0 0 0 0 0 0 0 0 0 0 0 0 0 0 0 0 0 0 0 0 0 0 0 0 0 0 0 0 0 0 0 0 0 0 0
0 0 0 0 0 0 0 0 0 0 0 0 0 0 0 0 0 0 0 0 0 0 0 0 0 0 0 0 0 0 0 0 0 0 0 0 0 0 0 0 0 0 0 0
0 0 0 0 0 0 0 0 0 0 0 0 0 0 0 0 0 0 0 0 0 0 0 0 0 0 0 0 0 0 0 0 0 0 0 0 0 0 0 0 0 0 0 0
0 0 0 0 0 0 0 0 0 0 0 0 0 0 0 0 0 0 0 0 0 0 0 0 0 0 0 0 0 0 0 0 0 0 0 0 0 0 0 0 0 0 0 0
0 0 0 0 0 0 0 0 0 0 0 0 0 0 0 0 0 0 0 0 0 0 0 0 0 0 0 0 0 0 0 0 0 0 0 0 0 0 0 0 0 0 0 0
0 0 0 0 0 0 0 0 0 0 0 0 0 0 0 0 0 0 0 0 0 0 0 0 0 0 0 0 0 0 0 0 0 0 0 0 0 0 0 0 0 0 0 0
0 0 0 0 0 0 0 0 0 0 0 0 0 0 0 0 0 0 0 0 0 0 0 0 0 0 0 0 0 0 0 0 0 0 0 0 0 0 0 0 0 0 0 0
0 0 0 0 0 0 0 0 0 0 0 0 0 0 0 0 0 0 0 0 0 0 0 0 0 0 0 0 0 0 0 0 0 0 0 0 0 0 0 0 0 0 0 0
0 0 0 0 0 0 0 0 0 0 0 0 0 0 0 0 0 0 0 0 0 0 0 0 0 0 0 0 0 0 0 0 0 0 0 0 0 0 0 0 0 0 0 0
0 0 0 0 0 0 0 0 0 0 0 0 0 0 0 0 0 0 0 0 0 0 0 0 0 0 0 0 0 0 0 0 0 0 0 0 0 0 0 0 0 0 0 0
0 0 0 0 0 0 0 0 0 0 0 0 0 0 0 0 0 0 0 0 0 0 0 0 0 0 0 0 0 0 0 0 0 0 0 0 0 0 0 0 0 0 0 0
0 0 0 0 0 0 0 0 0 0 0 0 0 0 0 0 0 0 0 0 0 0 0 0 0 0 0 0 0 0 0 0 0 0 0 0 0 0 0 0 0 0 0 0
0 0 0 0 0 0 0 0 0 0 0 0 0 0 0 0 0 0 0 0 0 0 0 0 0 0 0 0 0 0 0 0 0 0 0 0 0 0 0 0 0 0 0 0
0 0 0 0 0 0 0 0 0 0 0 0 0 0 0 0 0 0 0 0 0 0 0 0 0 0 0 0 0 0 0 0 0 0 0 0 0 0 0 0 0 0 0 0
Wind_Speed
6 5 3 5 7 8 9 9 8 8 8 7 4 3 2 1 1 0 0 0 1 1 1 1 1 1 1 1 2 2 2 2 2 2 2 2 2 2 2 2 3 3 3 3
6 6 5 8 9 10 11 10 11 10 12 7 4 2 2 1 1 1 1 1 1 1 1 2 2 2 1 2 2 2 2 3 2 2 2 2 2 2 2 2 2 3 3 3
4 3 4 9 10 11 9 8 8 11 11 4 3 3 3 2 2 2 2 2 2 2 2 2 2 2 2 2 2 2 2 2 2 2 2 2 2 2 2 3 2 3 3 3
2 1 8 7 3 6 8 8 8 7 6 4 3 2 2 2 2 3 2 2 2 2 2 2 2 2 2 2 2 2 3 2 2 2 3 2 2 3 3 2 2 2 3 3
2 4 7 4 2 3 5 6 6 8 7 4 2 2 3 1 1 2 2 2 2 2 2 2 2 2 2 2 3 3 3 3 3 3 3 3 3 3 3 2 2 2 2 2
3 4 6 3 2 2 2 4 3 3 5 4 1 2 4 1 0 1 1 1 2 2 2 2 2 2 2 3 3 3 3 3 3 3 3 3 3 3 2 2 2 2 2 3
6 5 6 2 2 3 2 5 2 2 3 3 3 4 2 1 1 1 2 2 2 2 2 3 2 2 3 3 4 4 3 3 3 3 3 3 3 2 2 2 2 2 2 2
5 6 7 2 3 4 4 1 1 1 1 2 3 3 3 3 2 2 2 3 2 2 3 2 2 2 3 4 4 3 2 3 3 2 2 2 2 2 2 2 2 2 2 1
6 6 2 4 4 3 1 1 1 1 1 1 2 3 3 3 3 3 3 3 2 2 3 3 2 3 4 4 3 2 2 3 2 2 2 2 2 3 2 2 2 2 2 2
3 5 4 3 3 2 2 2 2 2 2 1 3 3 4 4 3 3 3 3 2 2 3 3 3 3 3 3 2 2 3 3 2 2 2 2 2 2 2 2 2 2 2 2
5 5 4 4 4 3 3 2 2 2 2 3 3 4 4 4 4 4 4 3 2 3 3 4 3 3 3 2 2 3 3 2 2 2 2 2 2 2 3 3 3 3 3 3
6 4 4 4 3 2 2 3 3 3 3 3 3 4 4 4 4 3 3 3 3 3 4 4 3 3 3 2 3 3 2 2 2 2 2 2 2 1 2 2 3 3 3 3
4 3 3 4 3 2 3 3 3 3 3 4 3 3 3 4 3 3 3 4 4 4 3 3 3 3 2 2 2 3 3 2 2 2 2 2 2 2 1 0 1 2 3 3
4 3 4 4 3 2 3 3 3 3 3 3 3 3 3 3 3 4 5 5 4 3 3 3 3 3 3 2 2 3 2 3 2 2 2 2 2 2 2 1 1 1 2 3
5 4 5 3 3 2 2 2 3 3 3 3 2 2 3 4 4 5 5 3 3 3 3 3 3 4 2 2 2 2 2 2 2 2 2 2 2 2 1 1 1 1 0 1
4 4 4 4 4 3 2 2 3 4 4 3 3 3 3 4 5 4 4 3 3 4 4 3 4 3 2 2 2 2 2 3 2 2 2 2 2 2 1 1 1 1 1 1
3 4 4 4 4 4 3 4 4 4 4 4 4 4 3 4 4 4 4 3 3 4 4 4 4 2 2 2 2 2 2 2 2 2 2 2 2 2 2 1 1 1 1 1
4 4 4 4 4 4 4 4 4 4 4 4 3 3 3 4 4 5 4 3 3 3 3 3 2 2 2 2 2 2 2 2 2 2 2 2 2 2 2 1 1 1 1 1
3 3 3 3 3 3 4 4 4 3 3 3 3 4 4 4 4 4 3 2 3 4 3 2 2 2 3 3 2 2 2 2 2 1 2 2 2 1 1 1 1 1 1 1
2 2 2 2 3 3 3 3 3 3 3 3 3 3 4 4 3 3 3 4 4 3 2 2 2 2 2 3 2 2 2 2 2 2 2 2 2 2 1 1 1 1 1 1
2 2 2 2 2 2 3 3 2 3 3 2 3 4 4 4 3 2 2 4 3 2 2 3 2 2 2 2 3 2 2 2 2 2 2 2 2 2 2 2 2 1 1 1
2 2 2 2 2 2 2 2 2 3 3 3 3 3 3 3 3 3 3 3 3 2 1 1 1 2 3 2 2 2 2 2 2 2 2 2 2 2 2 2 2 1 1 1
2 2 2 2 2 3 3 2 2 2 3 3 3 3 3 3 2 2 3 2 2 2 1 2 2 3 3 2 2 2 2 2 2 2 2 2 2 2 2 2 2 1 1 1
2 2 2 2 1 1 2 3 2 2 3 3 3 3 3 2 2 2 2 2 2 2 1 2 3 3 3 1 2 2 2 2 2 2 2 2 2 2 2 2 2 1 1 2
2 2 2 1 1 2 2 2 2 2 2 2 2 2 2 2 2 2 1 1 2 1 1 2 3 2 1 1 2 2 2 2 2 2 2 2 2 2 2 2 2 2 2 2
2 2 2 2 2 2 2 2 2 2 2 2 2 1 1 1 1 1 1 1 1 1 1 1 1 1 1 1 1 2 2 2 2 2 2 2 2 2 2 2 2 2 2 2
1 1 1 2 2 1 1 2 2 2 2 2 2 2 1 1 1 1 1 1 1 1 1 1 1 1 1 1 1 1 1 1 1 1 2 2 2 2 2 2 2 2 1 1
Wind_Direction
252 268 259 245 238 219 216 222 233 251 255 263 270 255 258 235 203 242 187 196 201 202 206 216 224 214 205 212 201 190 193 204 213 212 204 198 198 204 216 222 228 220 221 226
259 256 258 261 247 231 231 234 242 259 268 267 275 266 266 247 216 237 255 263 258 238 222 218 220 216 215 224 212 199 208 215 208 204 204 204 209 209 215 224 226 219 222 223
262 252 279 260 235 223 225 224 220 238 250 265 266 263 263 260 236 243 247 258 261 250 230 228 226 216 216 224 226 212 217 219 209 200 207 216 219 212 215 226 230 227 225 220
256 244 239 243 216 201 218 236 225 238 258 263 243 259 276 259 241 251 250 254 259 255 248 234 227 221 214 217 220 218 221 221 214 205 211 216 217 220 219 222 224 229 229 223
217 241 262 255 213 178 199 255 233 235 253 266 263 311 288 266 213 231 249 243 244 250 255 240 228 219 211 221 220 218 222 227 221 209 209 211 217 221 221 215 227 234 232 228
224 241 247 245 172 144 128 266 262 225 239 249 195 256 265 319 40 305 303 278 261 264 258 242 231 207 208 225 223 228 232 234 227 217 211 213 218 224 226 217 223 231 240 229
228 242 262 261 159 124 177 245 281 225 228 214 208 229 260 323 331 313 296 283 264 254 249 245 229 207 221 225 229 235 240 239 231 222 218 215 221 225 215 218 216 224 239 242
201 226 248 173 144 181 218 256 290 301 239 208 231 268 299 307 300 294 286 281 266 253 257 253 232 220 234 236 236 227 229 233 230 222 224 219 212 221 208 197 204 216 223 242
199 217 234 172 194 219 234 266 272 270 283 240 252 264 281 288 288 280 276 275 270 258 265 262 242 229 238 249 235 220 219 226 225 226 224 221 214 210 202 196 197 210 215 230
256 259 248 227 233 252 264 254 259 256 260 254 260 270 281 282 281 278 278 271 267 259 260 268 260 247 241 244 231 214 219 220 210 207 220 223 226 209 202 200 200 211 219 231
245 261 274 259 242 243 255 260 269 270 251 242 253 270 272 274 272 270 274 271 262 252 252 262 266 261 250 235 214 216 217 213 208 209 206 213 228 223 218 215 209 209 209 209
230 225 220 244 238 240 251 260 262 264 274 262 241 257 268 268 266 265 268 268 262 257 256 259 257 259 250 232 213 205 216 214 205 202 206 202 203 254 259 233 223 223 228 233
245 270 260 268 265 252 252 263 266 257 259 273 268 255 260 269 271 268 272 270 261 259 258 258 256 256 251 237 215 206 216 218 210 206 204 202 196 192 211 294 228 235 238 244
249 261 270 270 270 279 276 276 276 272 268 266 266 268 267 275 279 276 272 268 264 263 260 253 250 255 252 234 215 209 211 216 212 208 201 199 202 205 192 181 199 259 252 245
256 245 247 266 278 282 282 286 289 283 284 287 284 276 273 273 275 275 275 273 269 262 257 248 247 255 248 224 218 210 200 198 201 198 196 193 192 191 187 188 193 210 267 261
260 258 252 255 265 274 283 278 272 276 283 285 287 282 277 274 274 275 273 260 252 255 255 248 249 248 231 217 215 207 205 210 198 185 182 180 179 177 179 184 191 200 218 224
238 249 245 252 260 267 267 264 260 266 274 275 274 280 288 289 285 282 279 269 256 256 252 245 251 248 229 218 205 203 198 196 194 181 181 181 180 183 184 188 200 219 236 243
229 236 232 234 245 260 269 271 267 265 266 272 275 273 274 272 273 279 282 287 285 279 264 252 245 232 227 222 205 191 186 188 184 184 179 177 181 183 183 191 203 219 249 242
240 248 254 255 253 250 258 264 266 264 267 265 260 259 263 265 268 270 273 271 268 272 273 252 240 221 223 219 200 179 180 182 176 175 170 180 176 171 180 192 205 213 222 232
261 259 260 271 274 260 260 266 267 268 265 258 262 267 273 273 268 262 258 253 246 249 253 242 218 212 209 204 189 177 182 184 177 175 170 170 177 184 188 197 204 211 220 235
268 259 256 257 268 266 258 261 262 266 271 259 253 259 267 274 265 248 248 266 269 258 248 235 215 216 207 196 181 177 181 182 179 178 176 180 185 187 190 199 209 218 226 238
273 260 258 257 264 280 281 268 257 260 268 268 265 262 264 269 264 251 245 248 258 271 263 220 215 216 209 185 177 181 182 180 178 175 176 182 187 191 199 205 212 222 227 235
282 273 266 264 265 278 291 281 260 249 251 256 259 253 250 255 248 246 268 267 241 246 245 228 224 215 198 170 175 178 181 180 181 181 182 185 190 195 200 204 210 213 213 226
289 286 278 278 280 283 284 286 281 272 263 262 256 247 241 250 260 243 240 273 277 257 237 232 225 213 187 170 169 174 180 181 180 180 178 181 187 193 199 203 206 210 215 225
285 283 281 277 276 274 279 292 298 290 286 283 280 269 243 228 243 268 264 243 250 260 251 236 222 200 166 162 170 177 185 193 187 175 176 180 189 196 202 204 204 208 217 226
280 278 272 264 263 270 273 274 279 285 289 295 299 292 275 262 249 252 254 246 238 255 240 213 201 186 165 169 176 183 188 190 187 184 185 190 194 196 201 205 205 213 221 225
287 288 292 298 294 277 271 268 268 275 273 274 290 296 291 291 279 255 249 233 224 234 218 187 170 169 165 167 176 180 185 184 180 185 187 192 193 199 206 207 214 222 222 221